Lapse_Rate
3.5 3.2 3.2 3.4 3.5 3.3 3.3 3.1 2.7 2.5 2.4 2.2 1.9 1.5 1.1 0.8 0.4 0.0 -0.2 -0.3 -0.5 -1.5 -1.9 -2.2 -2.5 -2.1 0.6 3.6 4.7 4.8 3.1 2.2 2.0 3.8 5.1 5.8 5.8 5.5 6.5 5.9 5.1 6.5 6.1 5.3 4.6 4.1 4.9
3.6 3.5 3.4 3.6 3.6 3.5 3.2 3.2 2.8 2.6 2.3 2.1 1.8 1.6 1.2 0.8 0.5 0.1 -0.1 -0.0 -0.5 -1.1 -1.7 -2.1 -2.5 -1.0 3.7 6.0 5.9 4.2 2.9 2.5 3.6 4.9 5.5 6.2 6.2 6.1 5.9 6.1 6.3 5.4 5.1 4.6 4.8 4.2 4.3
4.1 3.3 3.2 3.3 3.8 3.4 3.4 3.3 3.0 2.3 2.3 2.1 1.9 1.5 1.3 1.1 0.7 0.3 0.2 0.0 -0.7 -1.5 -2.0 -1.8 -2.2 0.4 3.3 3.7 5.4 4.4 3.6 5.8 6.1 6.6 6.8 6.7 6.3 6.2 5.7 6.1 5.5 5.5 6.5 6.4 5.5 4.8 6.2
4.3 3.6 3.4 4.3 3.4 3.3 3.4 3.4 3.1 2.3 2.0 2.0 1.8 1.5 1.3 1.0 0.7 0.6 0.6 -0.2 -1.3 -1.9 -2.0 -2.2 -1.2 2.4 3.5 4.9 6.0 5.9 5.1 6.5 6.8 7.4 7.3 6.5 7.0 6.6 6.2 5.6 5.3 6.5 6.5 6.5 6.5 6.4 5.5
4.5 3.8 3.7 4.5 4.2 3.6 3.6 2.9 2.8 1.9 1.9 2.0 1.9 1.6 1.5 1.2 0.9 1.4 0.8 -0.0 -0.3 -1.4 -1.5 -1.6 1.9 3.9 3.7 6.0 6.2 6.7 6.2 6.8 7.3 7.0 6.6 7.3 7.1 6.0 5.4 6.5 6.5 6.5 6.5 6.5 6.5 5.7 6.5
4.2 4.2 3.7 4.8 4.2 3.2 3.2 3.3 3.4 2.2 2.2 2.4 2.3 2.1 2.0 1.7 1.6 1.5 0.6 1.6 0.7 -0.4 0.4 2.1 4.5 5.7 4.4 6.2 6.8 7.8 6.6 6.9 7.1 6.8 6.3 6.6 3.6 6.5 6.5 6.5 6.5 6.5 6.5 6.5 6.5 6.5 6.5
4.1 4.6 4.6 3.8 3.8 3.7 3.9 3.5 3.3 2.7 2.7 3.0 2.4 2.1 1.8 1.4 1.7 0.6 0.0 1.4 3.1 4.1 4.5 5.6 6.3 5.7 5.7 6.8 7.3 7.1 7.3 7.2 7.0 6.3 6.5 5.5 6.5 6.5 6.5 6.5 6.5 6.5 6.5 6.5 6.5 6.5 6.5
4.0 3.9 4.1 4.2 4.2 3.5 3.7 3.9 3.9 3.4 3.0 2.8 2.4 2.2 1.6 1.2 1.9 2.0 -0.4 5.5 6.7 6.6 5.5 4.5 4.1 4.7 5.3 5.8 6.6 6.7 7.1 6.6 6.0 6.5 6.4 6.5 6.5 6.5 6.5 6.5 6.5 6.5 6.5 6.5 6.5 6.5 6.5
4.2 4.2 4.2 4.6 4.2 4.1 3.8 3.8 4.2 3.5 3.3 3.3 2.5 1.9 1.1 2.2 2.1 2.4 5.0 5.7 6.7 6.0 5.3 5.2 5.1 5.8 5.0 5.2 5.7 5.9 6.6 6.2 6.1 6.5 6.5 6.5 6.5 6.4 6.5 6.5 6.5 6.5 6.5 6.5 6.5 6.5 6.5
4.1 4.3 3.8 4.4 4.1 4.1 4.0 4.2 4.2 3.7 3.6 3.6 2.3 2.3 2.8 3.0 2.9 4.3 5.6 4.3 5.2 5.1 6.5 6.5 6.2 6.4 6.7 6.2 6.3 6.0 5.9 6.1 6.3 6.5 6.5 6.5 6.0 6.5 6.5 6.5 6.5 6.5 6.5 6.5 6.5 6.5 6.5
4.4 4.4 3.9 3.7 3.7 3.9 3.6 4.0 4.3 4.1 3.5 3.4 2.6 2.6 3.2 3.1 2.7 4.9 4.1 4.4 4.6 4.8 6.5 6.5 6.5 7.0 6.2 5.8 6.6 6.6 7.0 5.4 6.5 6.5 6.5 6.5 6.5 6.5 6.5 6.5 6.5 6.5 6.5 6.5 6.5 6.5 6.5
4.3 4.0 4.4 4.2 3.8 3.5 3.5 3.9 3.9 3.7 3.4 2.9 2.5 2.8 3.5 3.2 2.7 4.0 3.8 3.5 4.0 6.5 6.5 6.5 6.4 6.5 6.4 6.3 6.4 6.5 6.3 6.2 6.4 6.5 6.5 6.5 5.8 6.5 6.5 6.5 6.5 6.5 6.5 6.5 6.5 6.5 6.5
4.3 3.7 3.8 3.8 3.6 3.4 3.5 3.1 3.2 3.0 2.8 2.8 2.9 3.1 3.5 3.5 4.2 4.1 3.6 3.8 6.5 6.5 6.5 6.5 6.5 6.5 6.5 6.5 6.5 6.5 6.5 6.5 6.5 6.5 6.5 6.5 6.5 6.3 6.0 6.5 6.5 6.5 6.5 6.5 6.5 6.5 6.5
5.0 3.7 3.5 3.9 3.6 3.6 2.6 2.5 2.5 2.8 3.1 3.4 3.5 3.2 3.4 3.8 4.0 4.3 3.2 6.1 6.5 6.5 6.5 6.5 6.5 6.5 6.5 6.5 6.5 6.5 6.5 6.5 6.5 6.5 6.5 6.5 6.5 6.5 6.5 6.5 6.5 6.5 6.5 6.5 6.5 6.5 6.5
5.3 4.2 3.4 3.5 3.9 3.2 3.6 3.3 3.2 3.2 3.2 3.6 3.4 3.0 3.1 2.8 3.9 2.9 3.5 6.5 6.5 6.5 6.5 6.5 6.5 6.5 6.5 6.5 6.5 6.5 6.5 6.5 6.5 6.5 6.5 6.5 6.5 6.5 6.5 6.5 6.5 6.5 6.5 6.5 6.5 6.5 6.5
5.0 4.8 4.3 3.5 4.3 4.1 3.7 3.8 3.8 3.1 2.9 2.7 3.3 4.5 4.0 4.6 4.3 3.5 6.0 6.5 6.5 6.4 6.6 6.5 6.5 6.5 6.5 6.5 6.5 6.5 6.5 6.5 6.5 6.3 6.2 6.5 6.5 6.5 6.5 6.2 6.3 6.5 6.5 6.5 6.5 6.5 6.5
4.9 4.9 4.5 3.8 3.7 3.6 3.5 3.4 3.6 4.0 3.4 4.3 5.2 6.1 5.5 5.4 4.6 5.3 6.5 6.5 6.5 6.4 6.8 6.5 6.5 6.5 6.5 6.5 6.5 6.5 6.5 6.5 6.5 6.5 6.0 6.5 6.5 6.5 6.5 6.5 6.5 6.5 6.5 6.5 6.5 6.5 6.5
5.3 4.9 4.6 4.3 4.2 3.8 3.6 3.4 3.0 3.5 3.7 3.7 5.2 6.4 4.2 5.1 6.0 6.1 6.5 6.5 6.5 6.3 6.6 6.2 6.5 6.5 6.5 6.5 6.5 6.5 6.5 6.5 5.7 6.4 6.5 6.5 6.5 6.5 6.5 6.5 6.5 6.5 6.5 6.5 6.5 6.5 6.5
6.0 5.1 4.8 4.6 4.3 4.0 3.4 3.3 3.4 3.4 4.7 2.7 4.3 4.3 4.7 5.0 6.5 6.5 6.5 6.5 6.2 6.5 6.5 6.5 6.5 6.5 6.5 6.5 6.5 6.5 6.5 6.3 5.4 6.4 6.5 6.5 6.5 6.5 6.5 6.5 6.5 6.5 6.5 6.5 6.5 6.5 6.5
6.4 5.4 5.1 4.8 4.6 4.4 4.2 3.7 3.5 3.6 5.0 3.3 3.7 6.5 5.0 5.7 5.4 6.4 6.5 6.5 6.5 5.7 6.1 5.9 6.4 6.2 6.5 6.5 6.5 6.5 6.5 6.4 5.8 6.2 4.0 5.6 6.5 6.5 6.5 6.5 6.5 6.5 6.5 6.5 6.5 6.5 6.5
6.3 5.6 5.0 4.7 4.7 4.5 4.7 3.9 3.7 3.9 4.7 3.5 3.5 5.5 4.5 6.5 6.5 6.4 6.4 6.5 6.5 6.5 5.8 5.2 6.5 6.5 6.5 6.5 6.5 6.5 6.5 6.5 6.1 5.2 5.8 6.5 6.5 6.5 6.5 6.5 6.5 6.5 6.5 6.5 6.5 6.5 6.5
6.2 5.4 5.1 4.6 4.8 4.7 4.6 4.1 4.1 4.1 5.1 3.9 4.9 4.8 4.8 5.1 5.8 6.5 6.5 6.5 6.5 6.5 6.5 6.5 6.5 6.5 6.5 6.5 6.5 6.5 6.5 6.5 6.5 6.4 6.5 6.4 6.5 6.5 6.5 6.5 6.5 6.5 6.5 6.5 6.5 6.5 6.5
6.1 5.4 5.0 4.5 4.7 4.9 5.0 4.5 4.3 3.9 5.5 3.6 3.7 4.0 4.4 4.9 6.0 6.5 6.5 6.5 6.5 6.2 5.6 5.4 6.0 6.5 6.5 6.3 5.6 5.0 4.1 5.1 5.7 6.4 6.5 6.5 6.5 6.5 6.5 6.5 6.5 6.5 6.5 6.5 6.5 6.5 6.5
5.9 5.4 5.1 5.0 4.9 5.0 5.1 4.8 4.0 4.3 5.5 3.3 5.2 5.2 4.7 6.5 6.5 6.5 6.5 6.3 6.5 6.3 6.4 5.5 4.3 6.1 5.4 5.0 5.3 5.6 6.0 5.2 5.4 5.8 5.1 6.5 6.5 6.5 6.5 6.5 6.5 6.5 6.5 6.5 6.5 6.5 6.5
6.1 5.5 5.3 5.0 5.2 5.3 5.3 5.0 4.0 4.9 6.5 3.1 4.0 5.1 4.8 6.5 5.9 6.4 6.3 6.4 6.3 5.9 6.1 5.6 4.5 4.3 3.8 4.6 6.5 6.5 6.5 6.5 6.5 6.5 6.5 6.2 6.5 6.5 6.5 6.5 6.5 6.5 6.5 6.5 6.5 6.5 6.5
5.4 5.4 5.2 5.1 5.2 5.6 5.3 4.6 4.3 5.1 5.6 3.2 3.3 3.8 4.2 4.6 6.4 6.1 6.2 5.8 6.5 6.5 6.6 5.9 5.3 2.7 2.9 5.5 6.5 6.5 6.5 6.5 6.5 6.5 6.3 6.5 6.5 6.5 6.5 6.5 6.5 6.5 6.5 5.4 6.3 6.5 6.3
5.4 5.6 5.3 5.2 5.0 5.4 5.0 5.0 4.7 5.1 5.4 4.4 3.9 4.6 4.0 4.2 5.3 5.0 6.2 6.3 5.2 5.1 6.5 5.7 5.5 5.6 4.3 6.5 6.5 6.5 6.5 6.5 6.5 6.5 6.5 6.5 6.5 6.5 6.5 6.5 6.5 6.5 6.0 5.9 6.5 6.5 5.4
5.5 5.3 5.4 5.4 5.2 5.3 5.0 5.2 5.0 5.5 6.1 5.4 4.6 5.1 3.6 4.2 3.5 4.8 6.0 5.4 5.1 4.8 6.5 4.4 5.7 4.8 5.9 6.5 6.5 6.5 6.5 6.5 6.5 6.5 6.5 6.5 6.5 6.5 6.5 6.5 6.5 5.4 6.2 6.5 5.6 3.9 4.0
5.3 5.2 5.3 5.1 5.1 5.3 5.1 5.0 5.4 5.8 7.1 7.0 4.1 4.7 4.0 3.5 3.4 3.1 5.7 5.7 5.9 6.4 4.7 3.6 5.6 5.2 3.9 6.5 6.5 6.5 6.5 6.5 6.5 6.5 6.5 6.5 6.5 6.5 6.5 6.5 5.3 5.2 5.1 4.1 2.9 3.3 3.9
Wind_Speed
25 23 22 20 18 17 15 13 11 8 7 6 7 9 11 13 15 18 21 24 27 27 27 26 27 28 8 5 5 4 6 3 3 4 5 5 5 3 4 4 9 2 5 10 6 8 4
27 24 24 22 20 19 18 16 14 10 8 7 7 9 11 13 15 19 22 24 26 28 26 25 24 19 3 4 2 8 7 4 3 1 4 3 4 4 2 3 2 5 8 9 7 10 6
27 26 25 23 22 21 19 18 16 12 10 8 7 8 10 13 16 20 24 27 27 27 25 23 13 4 1 10 0 7 7 4 4 3 2 3 2 5 3 7 1 6 8 10 9 7 5
26 27 26 24 25 23 20 19 18 13 11 9 8 8 10 13 16 21 26 30 31 27 24 12 2 0 6 6 11 5 5 4 5 4 2 5 2 1 2 3 7 4 4 4 9 2 4
29 27 27 27 29 26 24 21 21 15 12 11 10 7 10 13 18 23 28 34 35 24 11 3 1 2 8 10 4 6 6 4 2 4 4 4 1 2 5 2 5 5 2 3 9 7 4
30 27 27 28 31 29 26 25 23 17 13 11 9 8 11 13 17 23 30 33 21 8 2 4 1 2 5 2 3 2 3 3 3 2 3 1 4 1 3 4 2 2 3 4 3 6 7
35 29 29 29 28 28 28 25 24 18 14 13 10 9 11 12 16 17 14 5 5 5 5 3 4 4 7 3 4 3 2 2 1 2 2 2 3 6 11 7 7 5 1 3 4 5 5
32 34 31 29 27 28 26 27 26 19 15 12 11 10 8 9 13 17 1 3 2 3 8 10 16 10 18 1 5 6 3 1 4 6 0 4 6 11 7 6 7 1 2 6 6 6 3
24 29 31 28 28 28 28 26 26 21 16 15 11 10 5 6 17 3 1 4 5 3 3 10 6 6 6 10 9 11 6 2 6 5 5 6 8 4 4 5 2 3 2 4 6 7 2
23 28 27 30 31 30 28 28 26 22 20 17 12 5 6 12 6 3 3 7 11 2 2 6 3 5 4 7 4 7 10 8 3 8 6 6 10 7 1 3 4 3 3 4 4 3 1
26 23 22 28 29 30 27 28 26 23 21 17 12 6 4 4 1 1 3 12 9 2 4 5 2 2 4 7 3 3 3 4 8 6 3 8 6 6 2 4 3 6 3 1 2 3 2
25 25 23 24 27 30 30 30 27 25 22 19 11 4 3 2 1 3 9 7 2 4 5 4 0 2 4 2 3 1 2 3 1 2 3 9 4 4 6 3 3 1 2 4 3 3 2
25 25 25 24 22 26 31 29 28 27 24 16 10 5 2 1 3 6 7 3 4 2 5 1 3 2 5 5 3 5 4 2 3 3 2 5 4 5 5 1 3 5 5 3 3 3 4
29 27 26 26 26 26 23 27 29 28 24 19 12 7 3 2 2 3 3 5 3 4 4 6 4 5 4 6 5 4 5 2 3 2 1 2 6 3 2 7 5 1 6 4 2 0 2
30 27 27 26 25 25 25 27 25 25 22 18 16 2 1 2 3 3 5 3 6 3 3 6 8 3 3 2 4 5 5 2 3 4 4 2 1 2 7 3 4 2 2 3 4 3 3
32 32 31 29 26 26 25 25 25 25 22 21 4 3 3 8 7 4 3 5 5 3 4 4 3 4 3 6 6 2 4 3 2 6 1 0 2 1 1 5 5 3 1 3 3 3 3
32 32 31 29 29 27 26 25 26 25 28 22 3 3 2 17 4 2 4 6 6 6 3 2 3 2 4 3 2 4 2 4 4 4 5 2 3 5 3 3 2 3 2 4 3 4 4
33 33 31 32 30 30 29 27 28 28 26 5 3 3 3 8 3 3 5 7 5 6 8 7 2 3 3 4 3 5 3 4 7 2 3 2 3 1 3 2 0 3 1 3 4 3 1
34 35 33 32 31 29 30 30 30 28 25 5 4 2 2 2 8 7 4 7 4 5 6 7 7 6 1 1 1 2 2 2 7 4 2 2 2 2 5 5 4 4 1 1 3 3 6
36 36 36 34 34 33 32 33 30 32 27 4 4 2 3 4 2 14 12 6 11 6 5 5 6 4 3 1 1 1 1 3 5 4 1 2 2 5 5 4 2 2 2 2 3 3 3
36 37 38 37 35 34 33 34 34 35 27 4 2 5 5 9 13 6 14 9 13 6 6 8 4 7 6 5 4 3 2 3 5 5 5 3 1 2 2 2 2 2 5 8 4 5 5
35 37 37 37 36 35 36 37 35 30 21 3 4 3 1 3 8 12 6 6 13 11 8 5 5 8 7 6 6 6 5 2 1 2 2 3 2 2 4 2 3 7 9 10 12 10 9
35 38 38 39 39 38 35 36 32 31 17 3 3 2 3 3 5 11 12 8 14 6 6 8 8 4 5 10 7 12 9 8 5 6 4 3 4 3 4 4 5 7 11 10 9 7 7
37 38 39 39 39 39 37 35 32 38 16 3 2 2 3 2 6 8 9 12 14 8 9 8 7 8 5 5 5 5 2 6 7 6 6 6 6 3 2 3 2 7 6 8 8 2 4
38 39 39 40 39 39 37 32 35 37 22 3 1 2 2 2 3 7 11 8 16 11 5 8 6 7 8 5 4 3 4 4 4 6 6 5 5 2 3 2 7 10 9 4 6 3 2
34 38 40 40 39 37 34 31 34 35 25 4 2 2 3 4 1 6 2 8 6 10 3 4 2 5 6 3 3 6 5 4 5 3 5 6 4 5 3 3 6 5 5 6 2 2 2
29 35 38 41 40 38 34 33 32 29 23 5 1 3 3 3 3 4 3 2 3 3 4 3 5 2 5 3 3 4 6 4 5 7 5 4 2 9 3 5 7 8 10 2 2 5 5
32 33 38 39 40 39 36 34 30 28 25 7 2 2 4 3 3 5 5 4 3 3 3 2 4 4 3 3 3 3 3 7 5 5 7 6 7 4 3 2 11 6 2 6 6 3 7
24 32 34 37 36 38 37 31 29 29 26 14 3 1 6 4 3 2 3 2 3 0 1 4 1 2 4 3 2 3 2 2 5 3 2 4 7 6 8 7 5 4 5 5 6 7 7
Wind_Direction
206 206 211 213 220 218 220 219 221 228 245 269 295 310 318 324 326 327 328 330 331 331 332 336 339 338 351 2 258 189 178 202 306 315 322 354 1 26 340 316 339 27 329 321 299 298 285
203 206 211 216 212 224 223 222 214 221 233 254 277 299 309 316 319 320 320 322 323 324 326 330 336 339 8 304 277 175 173 148 241 242 310 6 334 261 245 308 358 304 305 296 303 301 297
202 200 210 212 220 217 225 226 222 210 225 237 262 283 297 306 311 313 315 317 317 315 317 321 329 346 348 245 103 190 187 214 189 191 337 305 336 38 335 323 324 291 313 327 303 264 249
199 200 208 212 219 216 222 225 224 213 215 232 247 267 288 299 306 311 315 315 310 305 304 308 343 29 246 259 302 230 190 288 280 253 212 259 285 78 196 291 351 326 40 347 293 328 279
200 200 201 206 214 215 216 219 225 207 214 225 236 254 282 297 306 313 317 312 304 302 281 204 137 137 268 311 276 253 172 219 236 261 260 282 44 232 5 34 357 360 266 285 334 37 5
203 197 201 202 207 209 212 216 224 207 210 224 232 247 279 295 306 319 322 307 299 319 158 172 275 23 277 242 214 237 193 216 215 341 356 144 50 24 11 72 254 296 348 326 295 317 19
200 204 204 200 202 205 208 210 218 207 202 219 236 251 272 297 310 330 345 347 8 347 19 237 206 266 286 300 341 276 331 195 232 68 230 262 107 240 243 193 238 225 8 292 275 310 33
197 200 199 198 195 200 203 202 211 201 203 214 226 243 259 309 313 322 312 40 90 236 302 268 248 239 250 71 297 263 38 121 174 229 202 360 251 241 262 231 223 235 284 295 284 297 165
198 201 204 199 193 195 197 200 205 197 199 215 210 230 241 330 313 340 173 34 0 34 270 283 232 211 227 171 220 255 184 186 214 247 232 186 254 341 230 267 245 271 217 269 269 323 311
193 203 195 198 195 193 193 196 200 191 195 203 199 203 27 311 259 285 111 305 349 69 326 279 240 249 160 141 246 218 200 168 215 228 222 232 257 248 108 241 156 237 259 259 288 41 306
189 191 196 200 197 194 190 191 194 191 191 189 176 176 237 358 34 80 301 324 316 94 338 274 269 302 115 141 313 5 125 110 209 231 129 242 310 318 314 247 181 230 332 296 264 321 65
190 190 195 201 200 189 185 183 186 181 181 174 167 171 300 28 357 287 310 318 47 48 253 295 20 93 85 23 308 301 74 51 166 165 196 243 212 209 228 221 172 213 340 345 16 95 350
190 186 183 184 185 187 183 172 169 169 166 162 162 164 175 72 221 323 327 34 66 182 322 252 316 173 179 183 241 179 183 141 150 105 278 294 258 197 184 206 335 61 62 343 356 31 224
197 185 177 175 168 168 161 160 160 163 166 163 159 145 246 229 289 336 47 55 166 251 286 352 334 324 200 156 234 223 136 221 248 132 334 23 338 350 159 165 186 134 158 160 187 248 275
196 187 177 173 170 163 164 161 164 165 163 157 138 83 314 241 205 61 85 123 204 237 344 333 324 23 303 4 229 144 212 184 195 160 158 43 314 6 63 72 105 324 70 184 129 354 103
188 192 190 176 175 169 167 166 165 165 159 154 115 135 239 170 143 63 98 194 230 193 327 342 331 26 353 333 12 103 150 334 108 56 24 135 4 334 9 48 17 141 177 61 12 161 207
183 187 187 179 175 169 171 168 167 166 162 162 93 143 235 147 91 80 191 197 227 239 200 257 292 318 336 349 324 337 27 10 357 9 50 35 107 296 58 55 201 15 26 57 105 129 156
182 184 183 176 172 167 164 162 157 163 159 94 125 178 192 138 151 197 188 168 216 231 203 225 279 245 222 303 340 17 42 14 340 316 62 61 126 145 82 347 42 108 87 123 119 205 115
186 182 180 176 170 168 162 160 162 158 153 123 138 169 185 117 203 196 184 208 213 222 189 184 206 203 61 216 298 8 73 13 17 50 95 329 15 60 356 346 357 68 333 77 86 66 186
189 184 181 177 171 169 168 164 162 163 172 113 127 157 222 209 218 198 187 196 210 240 216 180 185 154 146 143 88 229 307 44 22 53 70 94 109 142 188 229 182 298 269 230 137 114 205
188 183 179 175 171 169 171 165 166 174 172 103 143 214 188 206 196 183 195 182 198 229 210 163 218 188 168 186 194 163 292 19 16 12 1 96 134 344 111 9 349 263 275 285 238 197 185
185 179 178 171 170 169 169 167 174 176 158 96 159 155 30 161 159 185 179 205 203 192 177 216 171 198 186 186 181 197 146 114 242 333 359 24 243 99 315 303 299 280 262 248 260 259 248
184 179 175 169 170 169 173 175 174 164 148 139 208 273 127 193 167 189 203 196 202 196 258 206 186 174 185 235 214 213 188 171 197 187 203 124 115 83 263 344 359 308 251 236 239 220 216
183 177 174 170 170 170 174 175 166 166 166 127 184 164 113 227 166 197 210 204 221 221 222 207 180 181 225 131 70 57 84 183 196 207 162 144 120 102 229 22 309 242 285 283 240 273 213
182 178 172 170 171 172 176 166 167 170 174 96 94 94 119 124 167 187 221 204 220 237 226 231 209 181 146 76 76 65 344 344 272 224 189 166 126 127 177 186 292 296 273 251 185 226 199
174 176 171 169 170 171 168 163 165 172 174 99 78 99 90 119 21 306 198 211 191 212 207 220 90 116 81 103 114 170 196 199 220 190 28 94 104 146 129 172 239 245 286 352 39 256 164
173 169 171 170 167 170 164 168 164 168 165 120 91 91 74 108 343 14 66 275 338 144 163 150 173 91 75 116 118 167 220 208 212 182 169 119 54 199 147 214 274 240 270 349 103 241 158
176 172 172 169 169 166 165 165 156 155 151 127 156 112 123 101 325 10 14 23 352 23 145 269 83 349 52 181 144 178 216 212 201 188 170 156 160 191 133 154 257 218 328 201 204 148 157
169 165 165 163 164 162 160 153 148 151 154 133 110 23 90 79 186 267 289 99 50 13 151 345 219 132 168 137 155 152 233 223 163 227 159 196 179 181 182 207 236 219 214 262 164 160 177